N172SP KMEM-KDRP

Flight info

Callsign N172SP
Flight time 0h 48m
Altitude 4000
Route KMEM ELVIS4 WTWOO KDRP
Aircraft C172/L-V/N

Departure

Time 2026-05-06 00:44
Airport Memphis International Airport (KMEM)

Arrival

Time 2026-05-06 01:32
Airport Delta Regional Airport (KDRP)
Time Latitude Longitude Altitude Speed Heading
2026-05-06 00:30 35.05593 -89.98183 259 ft 0 kts 140°
2026-05-06 00:37 35.05589 -89.98176 259 ft 2 kts 103°
2026-05-06 00:37 35.05594 -89.98162 259 ft 1 kts 40°
2026-05-06 00:37 35.05599 -89.98153 259 ft 3 kts 72°
2026-05-06 00:38 35.05581 -89.98131 260 ft 2 kts 208°
2026-05-06 00:38 35.05550 -89.98161 260 ft 8 kts 204°
2026-05-06 00:38 35.05512 -89.98180 261 ft 5 kts 221°
2026-05-06 00:38 35.05496 -89.98235 261 ft 8 kts 269°
2026-05-06 00:39 35.05499 -89.98331 261 ft 10 kts 295°
2026-05-06 00:39 35.05540 -89.98373 259 ft 8 kts 324°
2026-05-06 00:39 35.05568 -89.98434 258 ft 6 kts 266°
2026-05-06 00:39 35.05560 -89.98498 259 ft 7 kts 226°
2026-05-06 00:40 35.05519 -89.98508 260 ft 4 kts 178°
2026-05-06 00:40 35.05485 -89.98507 261 ft 5 kts 181°
2026-05-06 00:40 35.05439 -89.98509 262 ft 7 kts 181°
2026-05-06 00:40 35.05379 -89.98510 263 ft 9 kts 180°
2026-05-06 00:41 35.05303 -89.98511 265 ft 11 kts 180°
2026-05-06 00:41 35.05215 -89.98511 269 ft 12 kts 180°
2026-05-06 00:41 35.05122 -89.98521 271 ft 13 kts 195°
2026-05-06 00:41 35.05026 -89.98570 273 ft 13 kts 202°
2026-05-06 00:42 35.04967 -89.98605 274 ft 5 kts 205°
2026-05-06 00:42 35.04953 -89.98614 275 ft 0 kts 213°
2026-05-06 00:43 35.04932 -89.98667 274 ft 14 kts 266°
2026-05-06 00:43 35.04780 -89.98740 274 ft 40 kts 181°
2026-05-06 00:43 35.04358 -89.98737 415 ft 61 kts 182°
2026-05-06 00:43 35.03889 -89.98738 631 ft 65 kts 179°
2026-05-06 00:44 35.03588 -89.98710 807 ft 62 kts 175°
2026-05-06 00:44 35.03023 -89.98747 1126 ft 59 kts 204°
2026-05-06 00:44 35.02681 -89.99075 1362 ft 58 kts 214°
2026-05-06 00:44 35.02373 -89.99445 1603 ft 56 kts 215°
2026-05-06 00:45 35.02091 -89.99807 1849 ft 54 kts 214°
2026-05-06 00:45 35.01817 -90.00165 2091 ft 52 kts 218°
2026-05-06 00:45 35.01549 -90.00500 2336 ft 50 kts 217°
2026-05-06 00:45 35.01290 -90.00803 2558 ft 48 kts 217°
2026-05-06 00:46 35.01125 -90.01216 2790 ft 58 kts 254°
2026-05-06 00:46 35.01379 -90.01740 3027 ft 75 kts 289°
2026-05-06 00:46 35.01835 -90.02168 3258 ft 78 kts 297°
2026-05-06 00:46 35.02314 -90.02586 3461 ft 78 kts 297°
2026-05-06 00:47 35.02798 -90.03007 3681 ft 77 kts 296°
2026-05-06 00:47 35.03282 -90.03426 3899 ft 76 kts 296°
2026-05-06 00:47 35.03764 -90.03876 3991 ft 89 kts 298°
2026-05-06 00:47 35.04296 -90.04446 3995 ft 99 kts 298°
2026-05-06 00:48 35.04845 -90.05043 3996 ft 98 kts 299°
2026-05-06 00:48 35.05399 -90.05653 3998 ft 98 kts 298°
2026-05-06 00:48 35.05777 -90.06062 3999 ft 98 kts 298°
2026-05-06 00:48 35.06361 -90.06926 4001 ft 81 kts 270°
2026-05-06 00:49 35.06511 -90.07658 4001 ft 79 kts 265°
2026-05-06 00:49 35.06618 -90.08391 4000 ft 79 kts 265°
2026-05-06 00:49 35.06723 -90.09106 4000 ft 80 kts 266°
2026-05-06 00:49 35.06724 -90.09798 4001 ft 75 kts 253°
2026-05-06 00:50 35.06674 -90.10495 4000 ft 75 kts 253°
2026-05-06 00:50 35.06628 -90.11179 3997 ft 75 kts 253°
2026-05-06 00:50 35.06599 -90.11632 3995 ft 75 kts 253°
2026-05-06 00:50 35.06544 -90.12522 3993 ft 74 kts 253°
2026-05-06 00:51 35.06504 -90.13193 3996 ft 74 kts 253°
2026-05-06 00:51 35.06463 -90.13903 3996 ft 74 kts 253°
2026-05-06 00:51 35.06422 -90.14591 3996 ft 74 kts 253°
2026-05-06 00:51 35.06382 -90.15286 3989 ft 75 kts 253°
2026-05-06 00:52 35.06344 -90.15920 3989 ft 74 kts 253°
2026-05-06 00:52 35.06319 -90.16363 3984 ft 74 kts 252°
2026-05-06 00:52 35.06266 -90.17273 3985 ft 74 kts 252°
2026-05-06 00:52 35.06225 -90.17936 3983 ft 75 kts 253°
2026-05-06 00:53 35.06183 -90.18639 3986 ft 75 kts 253°
2026-05-06 00:53 35.06142 -90.19341 3985 ft 75 kts 253°
2026-05-06 00:53 35.06100 -90.20045 3989 ft 75 kts 253°
2026-05-06 00:53 35.06060 -90.20739 3994 ft 75 kts 254°
2026-05-06 00:54 35.06019 -90.21435 3995 ft 75 kts 253°
2026-05-06 00:54 35.05992 -90.21905 3996 ft 75 kts 254°
2026-05-06 00:54 35.05953 -90.22575 3994 ft 75 kts 253°
2026-05-06 00:54 35.05900 -90.23480 3996 ft 76 kts 253°
2026-05-06 00:55 35.05876 -90.23891 3998 ft 75 kts 253°
2026-05-06 00:55 35.05859 -90.24176 3995 ft 76 kts 253°
2026-05-06 00:55 35.05821 -90.24841 3995 ft 75 kts 254°
2026-05-06 00:56 35.05780 -90.25517 3992 ft 76 kts 254°
2026-05-06 00:56 35.05742 -90.26161 3992 ft 76 kts 254°
2026-05-06 00:56 35.05740 -90.26183 3992 ft 76 kts 255°
2026-05-06 00:56 35.05733 -90.26316 3992 ft 76 kts 255°
2026-05-06 00:57 35.05708 -90.26745 3993 ft 76 kts 254°
2026-05-06 00:57 35.05658 -90.27605 3990 ft 76 kts 254°
2026-05-06 00:57 35.05624 -90.28174 3989 ft 76 kts 254°
2026-05-06 00:57 35.05598 -90.28604 3990 ft 76 kts 254°
2026-05-06 00:58 35.05548 -90.29473 3985 ft 76 kts 254°
2026-05-06 00:58 35.05510 -90.30114 3983 ft 75 kts 255°
2026-05-06 00:58 35.05474 -90.30719 3980 ft 76 kts 255°
2026-05-06 00:58 35.05455 -90.31025 3983 ft 76 kts 255°
2026-05-06 00:59 35.05402 -90.31923 3979 ft 76 kts 255°
2026-05-06 00:59 35.05363 -90.32580 3978 ft 77 kts 254°
2026-05-06 00:59 35.05339 -90.33009 3978 ft 76 kts 253°
2026-05-06 00:59 35.05288 -90.33869 3977 ft 76 kts 254°
2026-05-06 01:00 35.05250 -90.34512 3979 ft 76 kts 253°
2026-05-06 01:00 35.05210 -90.35159 3980 ft 76 kts 254°
2026-05-06 01:00 35.05174 -90.35780 3981 ft 76 kts 253°
2026-05-06 01:00 35.05133 -90.36463 3983 ft 76 kts 255°
2026-05-06 01:01 35.05093 -90.37146 3988 ft 76 kts 254°
2026-05-06 01:01 35.05050 -90.37854 3987 ft 76 kts 254°
2026-05-06 01:01 35.05008 -90.38544 3988 ft 76 kts 255°
2026-05-06 01:01 35.04981 -90.38997 3988 ft 77 kts 255°
2026-05-06 01:02 35.04927 -90.39920 3988 ft 77 kts 255°
2026-05-06 01:02 35.04885 -90.40619 3988 ft 76 kts 254°
2026-05-06 01:02 35.04844 -90.41312 3986 ft 76 kts 253°
2026-05-06 01:02 35.04800 -90.42026 3985 ft 77 kts 254°
2026-05-06 01:03 35.04756 -90.42758 3986 ft 77 kts 255°
2026-05-06 01:03 35.04727 -90.43243 3984 ft 78 kts 255°
2026-05-06 01:03 35.04681 -90.43974 3983 ft 78 kts 253°
2026-05-06 01:03 35.04624 -90.44931 3983 ft 78 kts 255°
2026-05-06 01:04 35.04581 -90.45643 3983 ft 78 kts 256°
2026-05-06 01:04 35.04552 -90.46130 3981 ft 79 kts 255°
2026-05-06 01:04 35.04494 -90.47098 3978 ft 79 kts 255°
2026-05-06 01:04 35.04452 -90.47821 3976 ft 78 kts 254°
2026-05-06 01:05 35.04423 -90.48299 3976 ft 78 kts 255°
2026-05-06 01:05 35.04378 -90.49025 3976 ft 78 kts 255°
2026-05-06 01:05 35.04321 -90.49937 3972 ft 78 kts 255°
2026-05-06 01:05 35.04294 -90.50396 3973 ft 79 kts 255°
2026-05-06 01:06 35.04237 -90.51347 3973 ft 78 kts 255°
2026-05-06 01:06 35.04194 -90.52050 3975 ft 78 kts 254°
2026-05-06 01:06 35.04149 -90.52786 3974 ft 78 kts 255°
2026-05-06 01:06 35.04119 -90.53269 3973 ft 78 kts 255°
2026-05-06 01:07 35.04062 -90.54198 3968 ft 79 kts 255°
2026-05-06 01:07 35.04024 -90.54863 3964 ft 78 kts 255°
2026-05-06 01:07 35.03981 -90.55547 3964 ft 78 kts 254°
2026-05-06 01:07 35.03936 -90.56254 3966 ft 78 kts 255°
2026-05-06 01:08 35.03934 -90.56934 3961 ft 85 kts 271°
2026-05-06 01:08 35.04165 -90.57404 3968 ft 94 kts 292°
2026-05-06 01:08 35.04856 -90.58225 3973 ft 100 kts 301°
2026-05-06 01:08 35.05433 -90.58800 3976 ft 101 kts 304°
2026-05-06 01:09 35.06025 -90.59352 3979 ft 102 kts 306°
2026-05-06 01:09 35.06444 -90.59731 3978 ft 103 kts 307°
2026-05-06 01:09 35.07077 -90.60291 3981 ft 103 kts 308°
2026-05-06 01:09 35.07923 -90.61029 3980 ft 103 kts 307°
2026-05-06 01:10 35.08360 -90.61405 3978 ft 103 kts 307°
2026-05-06 01:10 35.09178 -90.62113 3980 ft 103 kts 308°
2026-05-06 01:10 35.09801 -90.62650 3979 ft 103 kts 308°
2026-05-06 01:10 35.10242 -90.63030 3981 ft 102 kts 307°
2026-05-06 01:11 35.10886 -90.63584 3980 ft 102 kts 306°
2026-05-06 01:11 35.11537 -90.64148 3979 ft 102 kts 308°
2026-05-06 01:11 35.12387 -90.64884 3968 ft 103 kts 307°
2026-05-06 01:11 35.12800 -90.65239 3972 ft 103 kts 306°
2026-05-06 01:12 35.13661 -90.65985 3970 ft 104 kts 308°
2026-05-06 01:12 35.14101 -90.66364 3967 ft 105 kts 308°
2026-05-06 01:12 35.14983 -90.67125 3967 ft 105 kts 308°
2026-05-06 01:12 35.15647 -90.67699 3967 ft 106 kts 307°
2026-05-06 01:13 35.16096 -90.68087 3967 ft 106 kts 307°
2026-05-06 01:13 35.16775 -90.68671 3970 ft 107 kts 308°
2026-05-06 01:13 35.17681 -90.69455 3969 ft 107 kts 308°
2026-05-06 01:13 35.18358 -90.70040 3965 ft 107 kts 307°
2026-05-06 01:14 35.19722 -90.71223 3970 ft 106 kts 308°
2026-05-06 01:14 35.20164 -90.71613 3972 ft 106 kts 308°
2026-05-06 01:14 35.20836 -90.72197 3976 ft 106 kts 309°
2026-05-06 01:15 35.21512 -90.72783 3980 ft 106 kts 309°
2026-05-06 01:15 35.22410 -90.73561 3979 ft 106 kts 308°
2026-05-06 01:15 35.22861 -90.73949 3979 ft 106 kts 308°
2026-05-06 01:15 35.23769 -90.74735 3984 ft 107 kts 308°
2026-05-06 01:16 35.24435 -90.75310 3985 ft 107 kts 309°
2026-05-06 01:16 35.24891 -90.75704 3985 ft 107 kts 309°
2026-05-06 01:16 35.25581 -90.76302 3979 ft 107 kts 309°
2026-05-06 01:16 35.26453 -90.77057 3979 ft 107 kts 309°
2026-05-06 01:17 35.26907 -90.77448 3976 ft 107 kts 308°
2026-05-06 01:17 35.27573 -90.78026 3974 ft 107 kts 309°
2026-05-06 01:17 35.28454 -90.78786 3967 ft 107 kts 309°
2026-05-06 01:17 35.28880 -90.79157 3969 ft 107 kts 309°
2026-05-06 01:18 35.29484 -90.79678 3967 ft 107 kts 309°
2026-05-06 01:18 35.30096 -90.80210 3966 ft 107 kts 309°
2026-05-06 01:18 35.30923 -90.80926 3963 ft 108 kts 310°
2026-05-06 01:18 35.31331 -90.81282 3962 ft 107 kts 310°
2026-05-06 01:19 35.31947 -90.81815 3958 ft 108 kts 310°
2026-05-06 01:19 35.32781 -90.82507 3927 ft 109 kts 314°
2026-05-06 01:19 35.33208 -90.82823 3835 ft 106 kts 314°
2026-05-06 01:19 35.34046 -90.83414 3665 ft 101 kts 315°
2026-05-06 01:20 35.34653 -90.83841 3537 ft 99 kts 314°
2026-05-06 01:20 35.35307 -90.84170 3403 ft 110 kts 341°
2026-05-06 01:20 35.35831 -90.84096 3320 ft 119 kts
2026-05-06 01:20 35.36670 -90.83186 3134 ft 121 kts 70°
2026-05-06 01:21 35.36753 -90.82143 3001 ft 106 kts 118°
2026-05-06 01:21 35.36515 -90.81627 2989 ft 86 kts 150°
2026-05-06 01:21 35.35967 -90.81367 2978 ft 74 kts 194°
2026-05-06 01:21 35.35324 -90.81683 2979 ft 72 kts 207°
2026-05-06 01:22 35.34997 -90.81829 2971 ft 75 kts 202°
2026-05-06 01:22 35.34488 -90.81990 2983 ft 76 kts 196°
2026-05-06 01:22 35.33961 -90.82099 2971 ft 78 kts 194°
2026-05-06 01:22 35.33240 -90.82195 2975 ft 78 kts 193°
2026-05-06 01:23 35.32875 -90.82225 2975 ft 78 kts 193°
2026-05-06 01:23 35.32130 -90.82369 2803 ft 85 kts 189°
2026-05-06 01:23 35.31542 -90.82381 2677 ft 83 kts 190°
2026-05-06 01:23 35.30961 -90.82379 2538 ft 83 kts 187°
2026-05-06 01:24 35.30584 -90.82384 2457 ft 82 kts 187°
2026-05-06 01:24 35.29813 -90.82391 2299 ft 81 kts 186°
2026-05-06 01:24 35.29440 -90.82396 2218 ft 80 kts 185°
2026-05-06 01:24 35.28687 -90.82402 2086 ft 76 kts 186°
2026-05-06 01:25 35.28142 -90.82407 2052 ft 70 kts 185°
2026-05-06 01:25 35.27791 -90.82410 2067 ft 68 kts 184°
2026-05-06 01:25 35.27131 -90.82412 2066 ft 69 kts 185°
2026-05-06 01:25 35.26595 -90.82418 2067 ft 74 kts 186°
2026-05-06 01:26 35.26247 -90.82423 2060 ft 76 kts 186°
2026-05-06 01:26 35.25703 -90.82432 2062 ft 78 kts 186°
2026-05-06 01:26 35.24959 -90.82444 2067 ft 80 kts 185°
2026-05-06 01:26 35.24356 -90.82455 2068 ft 81 kts 185°
2026-05-06 01:27 35.23938 -90.82461 2068 ft 81 kts 185°
2026-05-06 01:27 35.23317 -90.82472 2074 ft 81 kts 185°
2026-05-06 01:27 35.22713 -90.82481 2078 ft 82 kts 186°
2026-05-06 01:27 35.22134 -90.82491 2038 ft 85 kts 185°
2026-05-06 01:28 35.21558 -90.82506 1915 ft 81 kts 186°
2026-05-06 01:28 35.20815 -90.82521 1746 ft 78 kts 185°
2026-05-06 01:28 35.20448 -90.82526 1662 ft 77 kts 185°
2026-05-06 01:28 35.19912 -90.82536 1539 ft 77 kts 184°
2026-05-06 01:29 35.19382 -90.82542 1412 ft 77 kts 185°
2026-05-06 01:29 35.18842 -90.82551 1291 ft 77 kts 185°
2026-05-06 01:29 35.18287 -90.82558 1195 ft 74 kts 183°
2026-05-06 01:29 35.17577 -90.82564 1178 ft 69 kts 183°
2026-05-06 01:30 35.17219 -90.82564 1174 ft 68 kts 183°
2026-05-06 01:30 35.16703 -90.82556 1026 ft 72 kts 183°
2026-05-06 01:30 35.15962 -90.82572 855 ft 73 kts 184°
2026-05-06 01:30 35.15398 -90.82591 775 ft 73 kts 181°
2026-05-06 01:31 35.15013 -90.82600 698 ft 75 kts 182°
2026-05-06 01:31 35.14414 -90.82606 588 ft 76 kts 182°
2026-05-06 01:31 35.13696 -90.82624 447 ft 67 kts 182°
2026-05-06 01:31 35.13366 -90.82632 397 ft 59 kts 181°
2026-05-06 01:32 35.12918 -90.82636 303 ft 58 kts 179°
2026-05-06 01:32 35.12400 -90.82640 231 ft 27 kts 172°
2026-05-06 01:32 35.12344 -90.82642 231 ft 6 kts 177°
2026-05-06 01:32 35.12312 -90.82557 231 ft 11 kts 82°
2026-05-06 01:33 35.12273 -90.82514 231 ft 10 kts 186°
2026-05-06 01:33 35.12250 -90.82513 231 ft 2 kts 76°
2026-05-06 01:33 35.12300 -90.82513 231 ft 15 kts
2026-05-06 01:33 35.12442 -90.82511 231 ft 12 kts 359°
2026-05-06 01:34 35.12484 -90.82496 231 ft 6 kts 62°
2026-05-06 01:34 35.12471 -90.82432 231 ft 6 kts 175°
2026-05-06 01:34 35.12392 -90.82435 231 ft 12 kts 185°
2026-05-06 01:34 35.12360 -90.82406 231 ft 7 kts 98°
2026-05-06 01:35 35.12395 -90.82400 231 ft 4 kts 320°
2026-05-06 01:35 35.12398 -90.82409 231 ft 1 kts 265°
2026-05-06 01:35 35.12397 -90.82412 231 ft 0 kts 266°